Showing default

OPS 9317 (IDSCS 7), 2221

Orbit data source: Space-Track

OPS 9317 (IDSCS 7), 2221 is a payload satellite owned by USAF SSD (US) in GEO that was launched on Thu, 16 Jun 1966 UTC via a TITAN IIIC launch vehicle from the Air Force Eastern Test Range (AFETR). Payload-class satellites include a variety of spacecraft equipped with specific instruments for various scientific and technological missions. These include communications satellites like Starlink; space stations such as the ISS; scientific satellites like the Hubble; Earth observation satellites from companies like Planet Labs, Umbra, and HawkEye 360; GPS; miniature CubeSats for education and research; and military/defense satellites.

Not visible in the next 10 days
Identifier
2221, 1966-053H
Orbit
GEO
Last TLE update
1 week ago
Origin
Manufacturer
Philco-Ford WDL
Mission
Non-operational Defense Communications
Bus & Motor
IDCSP, Unknown motor
Mass
45 kg wet, 45 kg dry
Launch date (UTC)
1966-06-16 (59 years ago)
Launch vehicle
TITAN IIIC
Launch site
Air Force Eastern Test Range (AFETR)
Object type
Payload
Rocket body
Debris
Shape & HBR
Ico Poly, 0.9 m
Radar Cross Section
0.926 m², Medium (>0.1 m² and < 1m²)

Expand to show TLE details & history

TLE from 1 week ago
0 OPS 9317 (IDSCS 7)
1 02221U 66053H   25182.74145067 -.00000107  00000-0  00000-0 0  9998
2 02221   7.7511  50.2292 0080127 164.6349 195.5769  1.06870450 47285
Epoch: 2025-07-01T17:47Z
TLE epoch observation values (Epoch: 2025-07-01T17:47:41.337Z)
Latitude
-0°
Longitude
-136.74568°
Altitude
34,343.563 km
Speed
3.117 km/s
True Right ascension
03h 20m 50s
True Declination
0° 00' 00"
Sunlit
Object was in daylight at epoch
Visualization orbit readout
Latitude
4.94778°
Longitude
-97.58004°
Altitude
34,217.504 km
Speed
3.126 km/s
Apparent Right ascension
06h 10m 51s
Apparent Declination
0° 44' 07"
Sunlit
Object is in daylight
Visualization observer readout
Local Sidereal Time
20:05:56
Azimuth
41.051° NE
Elevation
-42.883°
Doppler factor
1
Orbital elements
Apogee altitude
34,357.491 km
Perigee altitude
33,709.875 km
Semi-major axis
40,411.82 km
Eccentricity
0.00801
Inclination
7.7511°
RAAN
50.2292°
Arg. of periapsis
164.6349°
True anomaly
Unknown
Mean anomaly
195.5769°
Eccentric anomaly
Unknown
Mean motion
0.26717 °/min
Orbital period
1,347.48 mins
BSTAR
0
Loading historical data...
2221 neighbors
Loading maneuver chart data...
Loading SW <> Apogee altitude chart data...
Loading historical data...
Loading historical data...
Loading historical data...
Loading historical data...
Loading historical data...
Loading historical data...
Loading historical data...

OPS 9317 (IDSCS 7) Visibility

Observer location: undefined°, undefined°

OPS 9317 (IDSCS 7) is likely not visible in the next few days
Span
Click to sort rows by Start time (UTC) header in descending order
Start Az.
Max El. time (UTC)
Max El. Az.
Max El.
End time (UTC)
End Az.
|